FORMOSAT7-4/COSMIC2-4

导读

FORMOSAT7-4,又称COSMIC2-4,隶属于福尔摩沙卫星七号(福卫七号)系统,是中国台湾地区与美国合作研发的气象卫星星座的第四颗卫星,于2019年6月25日发射升空。福卫七号共包含6颗卫星,接替福卫三号任务,主要用于提升天气预报精度,监测太空天气,支撑气候变迁研究,其数据收集量远超前代,且不受地形天候限制,能增强台风、强降雨等灾害预报能力。

Basic Information
目录编号:
44350
目录名称:
FORMOSAT7-4/COSMIC2-4
国际标识:
2019-036M
轨道中心:
EARTH
卫星名称:
FORMOSAT7-4/COSMIC2-4
卫星全名:
--
卫星状态:
在轨 (已飞行2576 天)
发射日期:
2019-06-25 UTC
国别 :
(TW)
星等 :
--
Orbit Information
数据来源 国际轨道数据 AOE轨道数据
星历时间 2026-07-13T14:32:51+0800
21小时前
查看轨道信息
2026-07-08T03:00:00+0800
6天前
查看轨道信息
半长轴 6955.529km 6955.574km
偏心率 0.0001326 0.0001635
轨道倾角 23.998° 24.001°
近地点辐角 124.265° 73.775°
升交点赤经 278.629° 315.584°
平近点角 235.798° 211.015°
近地点 576.469km 576.299km
远地点 578.315km 578.575km
周期 96.218分钟 96.219分钟
每日圈数 14.966062 14.965919
Detailed Information
使用方式:
暂无
2D Orbit Map
3D Orbit Map
Orbit Altitude Analysis Chart
Orbit Inclination Analysis Chart
Orbit Comprehensive Analysis Chart
View Comprehensive Chart